Weather History for Fort Drum, NY

Change the Weather History Date:

Wednesday, August 14, 2013

  Actual Average Record
Temperature  
Mean Temperature 60 °F -  
Max Temperature 67 °F 76 °F 96 °F (2002)
Min Temperature 51 °F 56 °F 49 °F (2007)
Degree Days  
Heating Degree Days 5    
Growing Degree Days 10 (Base 50)    
Moisture  
Dew Point 54 °F    
Average Humidity 91    
Maximum Humidity 100    
Minimum Humidity 59    
Precipitation  
Precipitation 0.11 in - - ()
Sea Level Pressure  
Sea Level Pressure 29.85 in    
Wind  
Wind Speed 7 mph (WNW)    
Max Wind Speed 21 mph    
Max Gust Speed 25 mph    
Visibility 10 miles    
Events Rain    
Averages and records for this station are not official NWS values.
T = Trace of Precipitation, MM = Missing Value Source: NWS Daily Summary

Daily Weather History Graph

Daily Weather History Graph

Search for Another Location

Airport:

Trip Planner

Search our weather history database for the weather conditions in past years. The results will help you decide how hot, cold, wet, or windy it might be!

Date:

Astronomy

Aug. 14, 2013 Rise Set
Actual Time 6:05 AM EDT 8:08 PM EDT
Civil Twilight 5:34 AM EDT 8:39 PM EDT
Nautical Twilight 4:55 AM EDT 9:18 PM EDT
Astronomical Twilight 4:13 AM EDT 10:00 PM EDT
Moon 2:20 PM EDT (8/14) No Moon Set
Length of Visible Light 15h 05m
Length of Day
14h 02m
First Quarter, 52% of the Moon is Illuminated
Aug 14
First Quarter
Aug 20
Full
Aug 28
Last Quarter
Sep 5
New
Sep 12
First Quarter

Hourly Weather History & Observations

Time (EDT) Temp. Dew Point Humidity Pressure Visibility Wind Dir Wind Speed Gust Speed Precip Events Conditions
12:58 AM 56.8 °F 51.4 °F 82% 29.78 in 10.0 mi Variable 6.9 mph - N/A   Partly Cloudy
1:58 AM 55.4 °F 52.0 °F 88% 29.77 in 10.0 mi West 6.9 mph - N/A   Partly Cloudy
2:33 AM 55.4 °F 51.8 °F 88% 29.76 in 10.0 mi West 8.1 mph - N/A   Mostly Cloudy
2:58 AM 55.2 °F 52.2 °F 89% 29.76 in 10.0 mi WSW 8.1 mph - N/A   Scattered Clouds
3:58 AM 54.0 °F 52.3 °F 94% 29.76 in 10.0 mi West 5.8 mph - N/A   Partly Cloudy
4:23 AM 53.6 °F 53.6 °F 100% 29.76 in 10.0 mi West 2.3 mph - N/A   Mostly Cloudy
4:38 AM 53.6 °F 53.6 °F 100% 29.76 in 10.0 mi West 2.3 mph - N/A   Mostly Cloudy
4:58 AM 53.6 °F 53.6 °F 100% 29.76 in 10.0 mi WSW 3.5 mph - N/A   Mostly Cloudy
5:33 AM 55.4 °F 53.6 °F 94% 29.76 in 10.0 mi Variable 3.5 mph - N/A   Mostly Cloudy
5:38 AM 55.4 °F 53.6 °F 94% 29.76 in 10.0 mi West 4.6 mph - N/A   Mostly Cloudy
5:48 AM 55.4 °F 53.6 °F 94% 29.77 in 10.0 mi West 4.6 mph - N/A   Mostly Cloudy
5:58 AM 54.9 °F 54.1 °F 97% 29.77 in 10.0 mi West 5.8 mph - N/A   Mostly Cloudy
6:13 AM 55.4 °F 53.6 °F 94% 29.77 in 10.0 mi West 8.1 mph - N/A   Overcast
6:16 AM 55.4 °F 53.6 °F 94% 29.77 in 10.0 mi West 9.2 mph - N/A   Light Drizzle
6:26 AM 55.4 °F 53.6 °F 94% 29.78 in 4.0 mi WNW 5.8 mph - N/A Rain Rain
6:36 AM 53.6 °F 53.6 °F 100% 29.78 in 4.0 mi Variable 5.8 mph - N/A Rain Light Rain
6:41 AM 53.6 °F 53.6 °F 100% 29.78 in 4.0 mi West 5.8 mph - N/A Rain Light Rain
6:51 AM 53.6 °F 53.6 °F 100% 29.78 in 10.0 mi Variable 3.5 mph - N/A Rain Light Rain
6:56 AM 53.6 °F 53.6 °F 100% 29.78 in 10.0 mi West 4.6 mph - N/A   Light Drizzle
6:58 AM 54.1 °F 54.1 °F 100% 29.78 in 10.0 mi West 4.6 mph - 0.05 in   Light Drizzle
7:04 AM 53.6 °F 53.6 °F 100% 29.78 in 10.0 mi West 5.8 mph - N/A   Overcast
7:19 AM 53.6 °F 53.6 °F 100% 29.79 in 10.0 mi West 5.8 mph - N/A   Overcast
7:29 AM 55.4 °F 55.4 °F 100% 29.79 in 10.0 mi West 4.6 mph - N/A   Overcast
7:34 AM 55.4 °F 55.4 °F 100% 29.79 in 10.0 mi West 5.8 mph - N/A   Overcast
7:58 AM 54.9 °F 54.9 °F 100% 29.80 in 10.0 mi West 6.9 mph - 0.00 in   Overcast
8:03 AM 55.4 °F 55.4 °F 100% 29.80 in 10.0 mi West 5.8 mph - N/A   Overcast
8:23 AM 55.4 °F 55.4 °F 100% 29.80 in 10.0 mi West 8.1 mph - N/A   Mostly Cloudy
8:58 AM 56.3 °F 56.3 °F 100% 29.81 in 10.0 mi West 5.8 mph - N/A   Overcast
9:08 AM 57.2 °F 57.2 °F 100% 29.82 in 10.0 mi WNW 8.1 mph - N/A   Overcast
9:23 AM 57.2 °F 57.2 °F 100% 29.82 in 10.0 mi West 5.8 mph - N/A   Overcast
9:43 AM 59.0 °F 55.4 °F 88% 29.82 in 10.0 mi WNW 6.9 mph - N/A   Overcast
9:55 AM 59.0 °F 55.4 °F 88% 29.82 in 10.0 mi NW 8.1 mph - N/A Rain Light Rain
9:58 AM 58.5 °F 54.5 °F 87% 29.82 in 10.0 mi NW 10.4 mph 17.3 mph 0.00 in   Light Drizzle
10:06 AM 57.2 °F 53.6 °F 88% 29.83 in 10.0 mi NW 8.1 mph 17.3 mph N/A   Mostly Cloudy
10:36 AM 59.0 °F 55.4 °F 88% 29.84 in 10.0 mi WNW 11.5 mph 18.4 mph N/A   Mostly Cloudy
10:53 AM 59.0 °F 53.6 °F 82% 29.85 in 10.0 mi NW 10.4 mph 17.3 mph N/A Rain Light Rain
10:58 AM 57.9 °F 54.3 °F 88% 29.86 in 10.0 mi NNW 10.4 mph 18.4 mph 0.00 in Rain Light Rain
11:08 AM 57.2 °F 55.4 °F 94% 29.85 in 10.0 mi WNW 9.2 mph 17.3 mph N/A   Light Drizzle
11:09 AM 57.2 °F 55.4 °F 94% 29.85 in 10.0 mi WNW 8.1 mph 17.3 mph N/A   Overcast
11:14 AM 57.2 °F 55.4 °F 94% 29.86 in 10.0 mi WNW 10.4 mph 23.0 mph N/A   Light Drizzle
11:30 AM 57.2 °F 55.4 °F 94% 29.87 in 10.0 mi NW 12.7 mph 17.3 mph N/A   Overcast
11:41 AM 57.2 °F 55.4 °F 94% 29.87 in 10.0 mi NW 13.8 mph 21.9 mph N/A   Light Drizzle
11:52 AM 57.2 °F 55.4 °F 94% 29.88 in 8.0 mi NNW 10.4 mph 21.9 mph N/A Rain Light Rain
11:58 AM 56.7 °F 55.9 °F 97% 29.88 in 8.0 mi NW 15.0 mph 19.6 mph 0.01 in Rain Light Rain
12:03 PM 57.2 °F 55.4 °F 94% 29.88 in 7.0 mi NW 9.2 mph 19.6 mph N/A Rain Light Rain
12:13 PM 55.4 °F 55.4 °F 100% 29.88 in 7.0 mi NNW 10.4 mph 18.4 mph N/A Rain Light Rain
12:17 PM 57.2 °F 57.2 °F 100% 29.89 in 10.0 mi NNW 8.1 mph - N/A   Overcast
12:22 PM 57.2 °F 57.2 °F 100% 29.89 in 10.0 mi North 10.4 mph - N/A   Overcast
12:32 PM 59.0 °F 57.2 °F 94% 29.89 in 10.0 mi NNW 13.8 mph 18.4 mph N/A   Mostly Cloudy
12:37 PM 59.0 °F 57.2 °F 94% 29.89 in 10.0 mi NNW 13.8 mph - N/A   Mostly Cloudy
12:42 PM 59.0 °F 55.4 °F 88% 29.89 in 10.0 mi NNW 10.4 mph 19.6 mph N/A   Mostly Cloudy
12:52 PM 60.8 °F 55.4 °F 82% 29.90 in 10.0 mi NNW 10.4 mph 18.4 mph N/A   Mostly Cloudy
12:58 PM 60.4 °F 55.4 °F 83% 29.90 in 10.0 mi NNW 12.7 mph 18.4 mph 0.01 in   Mostly Cloudy
1:13 PM 62.6 °F 55.4 °F 77% 29.89 in 10.0 mi NNW 11.5 mph 19.6 mph N/A   Mostly Cloudy
1:26 PM 62.6 °F 55.4 °F 77% 29.90 in 10.0 mi NNW 20.7 mph 25.3 mph N/A Rain Heavy Rain
1:31 PM 59.0 °F 55.4 °F 88% 29.91 in 7.0 mi NNW 9.2 mph 25.3 mph N/A Rain Light Rain
1:36 PM 57.2 °F 55.4 °F 94% 29.91 in 7.0 mi Variable 5.8 mph 25.3 mph N/A Rain Light Rain
1:44 PM 57.2 °F 57.2 °F 100% 29.91 in 10.0 mi NNW 5.8 mph - N/A   Overcast
1:58 PM 60.4 °F 57.9 °F 91% 29.91 in 10.0 mi NW 5.8 mph - 0.04 in   Scattered Clouds
2:58 PM 65.1 °F 54.1 °F 68% 29.91 in 10.0 mi North 11.5 mph - N/A   Scattered Clouds
3:58 PM 64.4 °F 53.8 °F 68% 29.92 in 10.0 mi NNW 8.1 mph - N/A   Mostly Cloudy
4:58 PM 67.1 °F 52.9 °F 60% 29.93 in 10.0 mi WNW 5.8 mph - N/A   Mostly Cloudy
5:58 PM 66.2 °F 51.4 °F 59% 29.95 in 10.0 mi NW 10.4 mph - N/A   Scattered Clouds
6:58 PM 66.0 °F 51.6 °F 60% 29.96 in 10.0 mi NW 6.9 mph - N/A   Partly Cloudy
7:58 PM 61.3 °F 51.3 °F 69% 29.99 in 10.0 mi WNW 4.6 mph - N/A   Clear
8:58 PM 56.5 °F 50.0 °F 79% 30.00 in 10.0 mi West 2.3 mph - N/A   Clear
9:58 PM 55.2 °F 50.0 °F 83% 30.01 in 10.0 mi WSW 4.6 mph - N/A   Clear
10:58 PM 53.2 °F 50.2 °F 89% 30.01 in 10.0 mi SW 3.5 mph - N/A   Clear
11:58 PM 51.4 °F 49.3 °F 92% 30.02 in 10.0 mi SW 5.8 mph - N/A   Mostly Cloudy